This is the latest recevied weather packets stored in our database for station/object SQ6RR-12. If no packets are shown the sender has not sent any weather packets the latest 10 day(s).
| Time | Temp. | Humidity | Pressure | Rain* | Wind** | Luminosity | Snow |
|---|---|---|---|---|---|---|---|
| 1778083196 | 17.22° C | 10% | 1006.9 hPa | 0 mm | - | - | - |
| 1778082942 | 17.78° C | 97% | 1007 hPa | 0 mm | - | - | - |
| 1778082687 | 18.33° C | 98% | 1007.1 hPa | 0 mm | - | - | - |
| 1778082427 | 18.33° C | 93% | 1007.1 hPa | 0 mm | - | - | - |
| 1778082167 | 18.33° C | 95% | 1007.1 hPa | 0 mm | - | - | - |
| 1778081893 | 18.33° C | 88% | 1007 hPa | 0 mm | - | - | - |
| 1778081623 | 18.33° C | 86% | 1006.9 hPa | 0 mm | - | - | - |
| 1778081343 | 18.33° C | 82% | 1007 hPa | 0 mm | - | - | - |
| 1778081091 | 18.33° C | 77% | 1007 hPa | 0 mm | - | - | - |
| 1778080818 | 19.44° C | 68% | 1007 hPa | 0 mm | - | - | - |
| 1778080552 | 20° C | 59% | 1006.9 hPa | 0 mm | - | - | - |
| 1778080298 | 20.56° C | 57% | 1006.8 hPa | 0 mm | - | - | - |
| 1778080027 | 21.11° C | 49% | 1006.8 hPa | 0 mm | - | - | - |
| 1778079761 | 21.67° C | 46% | 1006.7 hPa | 0 mm | - | - | - |
| 1778079497 | 21.67° C | 45% | 1006.7 hPa | 0 mm | - | - | - |
| 1778079226 | 22.22° C | 44% | 1006.8 hPa | 0 mm | - | - | - |
| 1778078958 | 23.89° C | 39% | 1006.8 hPa | 0 mm | - | - | - |
| 1778078678 | 25° C | 38% | 1006.8 hPa | 0 mm | - | - | - |
| 1778078416 | 25.56° C | 37% | 1006.9 hPa | 0 mm | - | - | - |
| 1778078137 | 26.11° C | 37% | 1006.9 hPa | 0 mm | - | - | - |
| 1778077872 | 26.67° C | 35% | 1007 hPa | 0 mm | - | - | - |
| 1778077601 | 26.11° C | 38% | 1007 hPa | 0 mm | - | - | - |
| 1778077343 | 26.11° C | 39% | 1007 hPa | 0 mm | - | - | - |
| 1778077065 | 25.56° C | 38% | 1007 hPa | 0 mm | - | - | - |
| 1778076795 | 26.67° C | 38% | 1007 hPa | 0 mm | - | - | - |
* Rain latest hour (hover to see other rain measurements)
** Current wind speed in m/s (hover to see current wind gust speed)